Location: Hurecourt
(47.9030°N, 6.0653°E)
Time: 10:19:09
(UTC+00:00)

COBE Rocket - Pass Details

Date: 14 July 2020
Orbit: 679 x 783 km, 97.1° (Epoch: 05 August)

Event Time Altitude Azimuth Distance (km) Brightness Sun altitude
Exits shadow 02:23:53 - 182° (S) 2,337 6.0 -11.5°
Reaches altitude 10° 02:24:02 10° 182° (S) 2,275 6.0 -11.5°
Maximum altitude 02:28:58 56° 261° (W) 880 4.1 -11.0°
Drops below altitude 10° 02:33:47 10° 340° (NNW) 2,227 6.8 -10.5°
Sets 02:36:05 0° 345° (NNW) 3,136 7.7 -10.2°
